Regional Weather Roundup
Issued by NWS Portland, ME

Current Version | Previous Version | Text Only | Print | Product List | Glossary Off
Versions: 1 2 3 4 5 6 7 8 9 10 11 12 13 14 15 16 17 18 19 20 21 22 23 24 25 26 27 28 29 30 31 32 33 34 35 36 37 38 39 40 41 42 43 44 45 46 47 48 49 50
000 ASUS41 KGYX 230810 RWRGYX WEATHER ROUNDUP FOR MAINE AND NEW HAMPSHIRE NATIONAL WEATHER SERVICE GRAY ME 400 AM EDT FRI JUN 23 2017 MEZ002-005-006-010-012-015-018-020-021-024-026-027-029-230900- MAINE CITY SKY/WX TMP DP RH WIND PRES REMARKS PORTLAND MOCLDY 63 56 78 CALM 29.81F SANFORD CLOUDY 61 59 93 E3 29.81F BAR HARBOR CLEAR 52 51 97 CALM 29.83F WISCASSET CLOUDY 55 53 93 CALM 29.83F ROCKLAND PTCLDY 53 52 96 CALM 29.83S FRYEBURG CLOUDY 60 57 89 CALM 29.81F LEWISTONAUBURN CLOUDY 59 57 93 CALM 29.82F AUGUSTA PTCLDY 57 54 89 SW3 29.83S WATERVILLE CLEAR 56 55 97 CALM 29.79F BANGOR PTCLDY 55 54 96 CALM 29.82F GREENVILLE N/A 54 51 90 CALM 29.81F MILLINOCKET CLEAR 52 52 100 E3 29.83S HOULTON CLEAR 48 47 96 S3 29.80S PRESQUE ISLE PTCLDY 48 46 93 CALM 29.80F FRENCHVILLE PTCLDY 53 46 77 CALM 29.78S CARIBOU PTCLDY 51 47 86 S3 29.79S $$ NHZ002-005-008-009-011-012-014-230900- NEW HAMPSHIRE CITY SKY/WX TMP DP RH WIND PRES REMARKS PORTSMOUTH MOCLDY 68 59 73 S5 29.78F ROCHESTER CLOUDY 64 59 83 CALM 29.80F NASHUA MOCLDY 70 63 78 SE3 29.81F MANCHESTER CLOUDY 70 58 65 SW3 29.78F CONCORD CLOUDY 65 60 84 CALM 29.80F LACONIA CLOUDY N/A N/A N/A CALM 29.81F PLYMOUTH CLOUDY 62 58 89 CALM 29.81F BERLIN CLOUDY 54 50 86 CALM 29.82F WHITEFIELD CLOUDY 58 54 86 CALM 29.80F JAFFREY MOCLDY 63 62 97 S3 29.85S KEENE PTCLDY 62 61 96 CALM 29.83S LEBANON CLOUDY 64 59 83 CALM 29.78F MT WASHINGTON FOG 48 48 100 W33 N/A VSB 0 $$ VTZ005-007-008-230900- VERMONT CITY SKY/WX TMP DP RH WIND PRES REMARKS ST JOHNSBURY N/A 59 59 100 MISG 29.78F MONTPELIER CLOUDY 61 59 93 CALM 29.83S BURLINGTON RAIN 64 63 96 CALM 29.78R FOG $$ MAZ007-012-024-CTZ003-RIZ002-NYZ038-NYZ072-230900- SOUTHERN NEW ENGLAND AND NY CITY SKY/WX TMP DP RH WIND PRES REMARKS BOSTON CLOUDY 67 59 75 S6 29.81F WORCESTER PTCLDY 64 58 80 SW9 29.85F NANTUCKET FOG 64 64 100 S10 29.87F VSB 1/4 PROVIDENCE PTCLDY 67 66 97 S3 29.84F HARTFORD MOCLDY 67 63 87 S6 29.82F ALBANY MOCLDY 72 63 73 S9 29.78F NEW YORK CITY CLOUDY 80 72 76 SW8 29.82F $$ ANZ081-ANZ082-ANZ150-NHZ014-MEZ023>029-230900- COASTAL MARINE OBSERVATIONS STATION/POSITION TIME TEMP WIND PRES WAVE AIR SEA DIR/SP/G HT/PER (UTC) (F) (DEG/KT/KT) (MB) (FT/S) MATINICUS ROCK 0700 59 210/ 7/ 7 1010.0F ISLE OF SHOALS 0700 66 170/ 9/ 9 1009.5F JEFFREYS LEDGE 0706 60 N/A 2/ 6 CASHES LEDGE BUO 0750 61 59 1010.4F 2/ 7 GEORGES BANK BUO 0650 56 54 1013.6 3/ 7 $$ .............KEY.............. WCI - WIND CHILL TC - TEMPERATURE IN CELSIUS VSB - VISIBILITY IN MILES HX - HEAT INDEX FAIR- INDICATES FEW OR NO CLOUDS BELOW 12,000 FT, WITH NO SIGNIFICANT WEATHER AND/OR OBSTRUCTIONS TO VISIBILITY.

USA.gov is the U.S. government's official web portal to all federal, state and local government web resources and services.